Weather History for Benton Harbor, MI

Change the Weather History Date:

Saturday, January 19, 2013

  Actual Average Record
Temperature  
Mean Temperature 42 °F -  
Max Temperature 46 °F 31 °F 53 °F (1973)
Min Temperature 39 °F 16 °F -9 °F (1997)
Degree Days  
Heating Degree Days 22    
Moisture  
Dew Point 30 °F    
Average Humidity 61    
Maximum Humidity 74    
Minimum Humidity 51    
Precipitation  
Precipitation 0.00 in - - ()
Sea Level Pressure  
Sea Level Pressure 29.84 in    
Wind  
Wind Speed 19 mph (SW)    
Max Wind Speed 30 mph    
Max Gust Speed 41 mph    
Visibility 10 miles    
Events      
Averages and records for this station are not official NWS values.
T = Trace of Precipitation, MM = Missing Value Source: NWS Daily Summary

Daily Weather History Graph

Daily Weather History Graph

Search for Another Location

Airport:

Trip Planner

Search our weather history database for the weather conditions in past years. The results will help you decide how hot, cold, wet, or windy it might be!

Date:

Astronomy

Jan. 19, 2013 Rise Set
Actual Time 8:09 AM EST 5:44 PM EST
Civil Twilight 7:38 AM EST 6:14 PM EST
Nautical Twilight 7:04 AM EST 6:49 PM EST
Astronomical Twilight 6:31 AM EST 7:22 PM EST
Moon 12:11 PM EST (1/19) 1:41 AM EST (1/19)
Length of Visible Light 10h 36m
Length of Day
9h 34m
First Quarter, 57% of the Moon is Illuminated
Jan 19
First Quarter
Jan 26
Full
Feb 3
Last Quarter
Feb 10
New
Feb 17
First Quarter

Hourly Weather History & Observations

Time (EST) Temp. Windchill Dew Point Humidity Pressure Visibility Wind Dir Wind Speed Gust Speed Precip Events Conditions
12:53 AM 42.1 °F 33.6 °F 25.0 °F 51% 29.94 in 10.0 mi SW 18.4 mph 29.9 mph N/A   Clear
1:53 AM 42.1 °F 32.3 °F 26.1 °F 53% 29.93 in 10.0 mi SW 24.2 mph 36.8 mph N/A   Clear
2:53 AM 42.1 °F 31.9 °F 28.0 °F 58% 29.95 in 10.0 mi SW 26.5 mph 34.5 mph N/A   Clear
3:53 AM 39.9 °F 30.0 °F 28.0 °F 63% 29.94 in 10.0 mi SW 21.9 mph 31.1 mph N/A   Clear
4:53 AM 39.9 °F 31.1 °F 28.0 °F 63% 29.93 in 10.0 mi SW 17.3 mph 29.9 mph N/A   Clear
5:53 AM 39.9 °F 30.5 °F 28.0 °F 63% 29.92 in 10.0 mi SW 19.6 mph 31.1 mph N/A   Clear
6:53 AM 41.0 °F 32.8 °F 28.0 °F 60% 29.92 in 10.0 mi SW 16.1 mph 29.9 mph N/A   Partly Cloudy
7:53 AM 41.0 °F 31.9 °F 28.0 °F 60% 29.93 in 10.0 mi SSW 19.6 mph 27.6 mph N/A   Overcast
8:53 AM 41.0 °F 32.5 °F 28.0 °F 60% 29.92 in 10.0 mi SSW 17.3 mph 23.0 mph N/A   Overcast
9:53 AM 41.0 °F 33.9 °F 28.0 °F 60% 29.92 in 10.0 mi SSW 12.7 mph - N/A   Scattered Clouds
10:53 AM 41.0 °F 35.8 °F 28.9 °F 62% 29.91 in 10.0 mi South 8.1 mph 17.3 mph N/A   Clear
11:53 AM 43.0 °F 36.4 °F 30.0 °F 60% 29.87 in 10.0 mi South 12.7 mph - N/A   Mostly Cloudy
12:53 PM 46.0 °F 39.0 °F 30.0 °F 54% 29.82 in 10.0 mi SW 17.3 mph 21.9 mph N/A   Clear
1:53 PM 46.9 °F - 30.9 °F 54% 29.77 in 10.0 mi SSW 15.0 mph 26.5 mph N/A   Clear
2:53 PM 46.0 °F 39.9 °F 30.9 °F 56% 29.78 in 10.0 mi SW 13.8 mph 23.0 mph N/A   Mostly Cloudy
3:53 PM 46.0 °F 38.8 °F 32.0 °F 58% 29.75 in 10.0 mi SSW 18.4 mph 23.0 mph N/A   Overcast
4:53 PM 46.9 °F - 33.1 °F 59% 29.73 in 10.0 mi SW 17.3 mph 25.3 mph N/A   Overcast
5:53 PM 46.0 °F 39.3 °F 33.1 °F 61% 29.73 in 10.0 mi SW 16.1 mph 29.9 mph N/A   Overcast
6:53 PM 46.0 °F 38.5 °F 34.0 °F 63% 29.74 in 10.0 mi WSW 19.6 mph 27.6 mph N/A   Partly Cloudy
7:53 PM 44.1 °F 36.5 °F 35.1 °F 71% 29.72 in 10.0 mi SW 17.3 mph 29.9 mph N/A   Partly Cloudy
8:53 PM 44.1 °F 35.4 °F 36.0 °F 73% 29.71 in 10.0 mi WSW 21.9 mph 34.5 mph N/A   Overcast
9:53 PM 43.0 °F 34.5 °F 35.1 °F 74% 29.72 in 10.0 mi WSW 19.6 mph 31.1 mph N/A   Overcast
10:53 PM 43.0 °F 32.5 °F 30.0 °F 60% 29.74 in 10.0 mi West 29.9 mph 41.4 mph N/A   Overcast